EW9355 Weather Reports


Display with metric or nautical units.
time (UTC)temp
F
wind
direction
speed
MPH
gust
MPH
rain 1hr
in
rain 24hr
in
rain mn
in
humidity
%
barometer
mb
20260509224556 88 103 1.0 4.0 0.00 0.00 0.00 48 1004.9
20260509223052 88 118 1.0 5.0 0.00 0.00 0.00 49 1005.0
20260509221554 89 122 0.0 3.0 0.00 0.00 0.00 49 1004.9
20260509220051 88 153 0.0 7.0 0.00 0.00 0.00 50 1004.9
20260509214551 88 162 0.0 8.0 0.00 0.00 0.00 53 1005.0
20260509213051 88 145 0.0 7.0 0.00 0.00 0.00 53 1005.3
20260509211558 88 161 0.0 9.0 0.00 0.00 0.00 54 1005.4
20260509210104 87 150 1.0 9.0 0.00 0.00 0.00 55 1005.5
20260509204548 90 68 0.0 4.0 0.00 0.00 0.00 50 1005.7
20260509203048 90 355 0.0 4.0 0.00 0.00 0.00 48 1006.0
20260509201555 89 116 0.0 2.0 0.00 0.00 0.00 49 1006.2
20260509200047 89 104 0.0 2.0 0.00 0.00 0.00 52 1006.2
20260509194540 87 87 0.0 5.0 0.00 0.00 0.00 55 1006.3
20260509193044 87 96 0.0 4.0 0.00 0.00 0.00 54 1006.4
20260509191539 87 360 0.0 4.0 0.00 0.00 0.00 58 1006.6
20260509190035 86 101 0.0 3.0 0.00 0.00 0.00 57 1006.8
20260509184540 86 288 0.0 5.0 0.00 0.00 0.00 59 1006.9
20260509183034 85 10 0.0 4.0 0.00 0.00 0.00 60 1007.0
20260509181527 84 117 1.0 6.0 0.00 0.00 0.00 61 1007.1
20260509180024 83 80 0.0 5.0 0.00 0.00 0.00 63 1007.2
20260509174521 83 12 0.0 4.0 0.00 0.00 0.00 65 1007.5
20260509173025 82 355 0.0 4.0 0.00 0.00 0.00 65 1007.6
20260509171527 82 5 0.0 4.0 0.00 0.00 0.00 66 1007.8
20260509170015 81 333 0.0 6.0 0.00 0.00 0.00 68 1007.7
20260509164512 80 20 0.0 3.0 0.00 0.00 0.00 69 1007.7
20260509163016 80 80 0.0 5.0 0.00 0.00 0.00 70 1007.8
20260509161514 80 103 0.0 6.0 0.00 0.00 0.00 71 1007.8
20260509160006 79 80 0.0 5.0 0.00 0.00 0.00 73 1007.7
20260509154503 78 5 2.0 6.0 0.00 0.00 0.00 73 1007.6
20260509153100 77 74 0.0 6.0 0.00 0.00 0.00 75 1007.7
20260509151607 77 349 0.0 4.0 0.00 0.00 0.00 76 1007.6
20260509150109 76 39 0.0 5.0 0.00 0.00 0.00 78 1007.7
20260509144559 75 31 0.0 6.0 0.00 0.00 0.00 79 1008.0
20260509143054 74 18 0.0 6.0 0.00 0.00 0.00 81 1007.7
20260509141546 73 355 0.0 8.0 0.00 0.00 0.00 83 1007.5
20260509140043 72 5 1.0 4.0 0.00 0.00 0.00 84 1007.6
20260509134540 72 360 0.0 4.0 0.00 0.00 0.00 86 1007.6
20260509133037 71 17 0.0 8.0 0.00 0.00 0.00 88 1007.5
20260509131535 70 262 0.0 4.0 0.00 0.00 0.00 89 1007.2
20260509130035 70 212 1.0 3.0 0.00 0.00 0.00 89 1007.1
20260509124540 69 255 0.0 4.0 0.00 0.00 0.00 90 1007.2
20260509123034 69 261 0.0 4.0 0.00 0.00 0.00 91 1007.3
20260509121549 69 271 0.0 1.0 0.00 0.00 0.00 91 1007.2
20260509120032 69 271 0.0 0.0 0.00 0.00 0.00 91 1007.1
20260509114548 69 271 0.0 0.0 0.00 0.00 0.00 91 1006.9
20260509113030 69 271 0.0 0.0 0.00 0.00 0.00 90 1006.4
20260509111531 69 271 0.0 0.0 0.00 0.00 0.00 90 1006.3
20260509110029 70 271 0.0 0.0 0.00 0.00 0.00 90 1006.1
20260509104528 70 271 0.0 0.0 0.00 0.00 0.00 90 1006.1
20260509103027 70 271 0.0 0.0 0.00 0.00 0.00 90 1006.2
20260509101526 70 271 0.0 0.0 0.00 0.00 0.00 90 1006.0
20260509100026 70 271 0.0 0.0 0.00 0.00 0.00 91 1006.0
20260509094531 69 271 0.0 0.0 0.00 0.00 0.00 91 1005.9
20260509093024 69 271 0.0 2.0 0.00 0.00 0.00 90 1005.4
20260509091525 69 271 0.0 4.0 0.00 0.00 0.00 90 1004.5
20260509090050 69 199 0.0 7.0 0.00 0.00 0.00 90 1003.8
20260509084524 70 119 0.0 5.0 0.00 0.00 0.00 90 1004.4
20260509083039 70 119 0.0 3.0 0.00 0.00 0.00 89 1005.2
20260509081524 70 165 0.0 1.0 0.00 0.00 0.00 88 1006.0
20260509080014 71 165 0.0 2.0 0.00 0.00 0.00 88 1006.5
20260509074524 70 243 0.0 1.0 0.00 0.03 0.00 88 1007.1
20260509073008 70 243 0.0 3.0 0.00 0.03 0.00 88 1007.4
20260509071508 70 242 0.0 3.0 0.00 0.03 0.00 89 1007.8
20260509070007 70 196 0.0 0.0 0.00 0.03 0.00 88 1007.7
20260509064505 70 196 0.0 0.0 0.00 0.03 0.00 88 1007.3
20260509063003 70 165 0.0 0.0 0.00 0.03 0.00 87 1007.4
20260509061504 70 165 0.0 0.0 0.00 0.03 0.00 87 1007.4
20260509060002 70 165 0.0 0.0 0.00 0.03 0.00 86 1008.0
20260509054600 71 165 0.0 0.0 0.00 0.03 0.00 85 1008.1
20260509053059 71 165 0.0 0.0 0.00 0.03 0.00 85 1008.5
20260509051602 71 165 0.0 0.0 0.00 0.03 0.00 84 1008.0
20260509050100 71 165 0.0 0.0 0.00 0.03 0.00 83 1007.4
20260509044554 72 165 0.0 0.0 0.00 0.03 0.03 82 1007.3
20260509043051 72 165 0.0 0.0 0.00 0.03 0.03 81 1007.2
20260509041552 72 115 0.0 0.0 0.00 0.03 0.03 80 1007.3
20260509040051 72 114 0.0 0.0 0.00 0.03 0.03 80 1008.0
20260509034553 72 114 0.0 0.0 0.00 0.03 0.03 80 1007.8
20260509033104 72 114 0.0 0.0 0.00 0.03 0.03 80 1007.3
20260509031619 72 114 0.0 2.0 0.00 0.03 0.03 80 1007.2
20260509030049 72 114 0.0 0.0 0.00 0.03 0.03 80 1007.1
20260509024557 72 113 0.0 0.0 0.00 0.03 0.03 80 1006.7
20260509023048 72 113 0.0 0.0 0.00 0.03 0.03 79 1006.5
20260509021547 72 113 0.0 0.0 0.00 0.03 0.03 79 1006.2
20260509020048 73 113 0.0 0.0 0.00 0.03 0.03 78 1006.3
20260509014547 73 112 0.0 0.0 0.00 0.03 0.03 78 1006.4
20260509013049 73 109 0.0 0.0 0.00 0.03 0.03 77 1006.3
20260509011548 73 98 0.0 0.0 0.00 0.03 0.03 77 1006.0
20260509010044 73 98 0.0 1.0 0.00 0.03 0.03 77 1005.7
20260509004555 73 98 0.0 1.0 0.00 0.03 0.03 76 1005.6
20260509003046 73 113 0.0 2.0 0.00 0.03 0.03 75 1005.5
20260509001544 74 138 0.0 2.0 0.00 0.03 0.03 74 1005.7
20260509000045 74 138 0.0 2.0 0.00 0.03 0.03 73 1005.9
20260508234539 74 139 0.0 1.0 0.00 0.03 0.03 72 1005.9
20260508233039 75 151 0.0 1.0 0.00 0.03 0.03 71 1006.0
20260508231544 75 109 0.0 3.0 0.00 0.03 0.03 69 1006.2
20260508230037 75 146 0.0 4.0 0.00 0.03 0.03 69 1006.0